Location: Utrecht
(52.0907°N, 5.1214°E)
Time: 10:54:12
(UTC+02:00)

MOZHAYETS 4 - Pass Details

Date: 07 July 2022
Orbit: 660 x 679 km, 98.2° (Epoch: 09 August)

Event Time Altitude Azimuth Distance (km) Brightness Sun altitude
Exits shadow 03:01:10 - 140° (SE) 2,935 10.7 -13.4°
Reaches altitude 10° 03:03:18 10° 133° (SE) 2,105 10.0 -13.3°
Maximum altitude 03:07:32 38° 66° (ENE) 1,023 9.1 -13.1°
Drops below altitude 10° 03:11:47 10° 358° (N) 2,108 11.4 -12.9°
Sets 03:14:08 0° 351° (N) 3,022 12.2 -12.8°
